STARLINK-1404, 45686

Orbit data source: Space-Track

STARLINK-1404, 45686 is a payload satellite owned by SpaceX/Seattle (US) in LEO that was launched on Thu, 04 Jun 2020 UTC via an FALCON 9 launch vehicle from the Air Force Eastern Test Range (AFETR). Payloads include a variety of satellites, spacecraft, and rockets equipped with specific instruments for various scientific and technological missions. These include communications satellites like Starlink; space stations such as the ISS; scientific satellites like the Hubble; Earth observation satellites from companies like Planet Labs, Umbra, and HawkEye 360; GPS; miniature CubeSats for education and research; and military/defense satellites.

Loading next visibility...
STARLINK-1404 details
Identifier
45686, 2020-035AF
Orbit
LEO
Last TLE update18 hours ago
Origin
Flag of USSpaceX/Seattle (US)
ManufacturerSpaceX/Seattle
MissionOperational Commercial Communications
Bus & MotorSTARLINK, Unknown motor
Mass260 kg wet, ~248 kg dry
Launch date (UTC)
2020-06-04 (5 years ago)
Launch vehicle
FALCON 9
Launch site
Air Force Eastern Test Range (AFETR)
Object type
Payload
Rocket body
Debris
Shape & HBRBox + 1 Pan, 8.86 m
Radar Cross Section13.562 m², Large (>1 m²)

Expand to show TLE details & history

TLE from 18 hours ago
0 STARLINK-1404
1 45686U 20035AF  24360.65152642  .00002545  00000-0  18965-3 0  9993
2 45686  53.0571 227.5405 0001874 110.7595 249.3595 15.06406850252297
Epoch: 2024-12-25T15:38Z
Definitive object data (Epoch: 2024-12-25T15:38:11.882Z)
Latitude-0.00003°
Longitude-101.65124°
Altitude548.528 km
Speed7.589 km/s
True Right ascension15h 10m 09s
True Declination0° 00' 00"
Sunlit
Object was in daylight at TLE epoch
Visualization TLE readout
Latitude-23.57358°
Longitude93.94437°
Altitude554.079 km
Speed7.585 km/s
Apparent Right ascension01h 25m 21s
Apparent Declination-43° 29' 10"
Sunlit
Object is in full shadow
Visualization observer readout
Local Sidereal Time09:25:52
Azimuth244.887° WSW
Elevation-46.131°
Doppler factor1
Orbital elements
Apogee altitude548.759 km
Perigee altitude546.163 km
Semi-major axis6,925.598 km
Eccentricity0.0001874
Inclination53.0571°
RAAN227.5405°
Arg. of periapsis110.7595°
True anomaly249.33941°
Mean anomaly249.3595°
Eccentric anomaly249.34945°
Mean motion3.7658 °/min
BSTAR0.00018965
Orbital period95.6 mins
Loading maneuver chart data...

STARLINK-1404 Visibility forecast

Observer location: undefined°, undefined

Span
Click to sort rows by Start time (UTC) header in descending order
Start Az.
Max El. time (UTC)
Max El. Az.
Max El.
End time (UTC)
End Az.
7 mins2024-12-26 17:15:45.394Z198.348° SSW2024-12-26 17:19:45.394Z116.555° SE29.939°2024-12-26 17:22:45.394Z67.24° ENE
5 mins2024-12-26 18:56:45.394Z277.858° WNW2024-12-26 18:58:45.394Z327.376° NNW29.874°2024-12-26 19:01:45.394Z30.862° NE
5 mins2024-12-26 23:58:45.394Z338.366° N2024-12-27 00:00:45.394Z36.828° NE32.866°2024-12-27 00:03:45.394Z98.863° ESE
5 mins2024-12-27 01:37:45.394Z278.671° WNW2024-12-27 01:39:45.394Z237.776° WSW26.261°2024-12-27 01:42:45.394Z174.883° S
|